Portada
METAR-TAF:

METAR-TAF

Aeroports :

Narrandera, Austràlia

latitud: 34-42-08S, longitud: 146-30-44E, altitud: 144 m

Observació

L'informe es va fer fa 1 hora i 15 minuts, a les 08:00 UTC
Vent 8 kt del Sud-Est
Temperatura 19°C
Humitat 32%
Pressió 1024 hPa

METAR: YNAR 240800Z AUTO 13008KT //// // ////// 19/02 Q1024

Hora: 19:15 (09:15 UTC)


TAF: manca

Observacions i pronòstics meteorològics de més de 4000 aeroports (METAR i TAF).

Les estacions disponibles són els punts grocs i vermells al mapa.

Posi el ratolí al punt desitjat per veure el nom de l'estació.

Feu clic per veure les observacions i els pronòstics meteorològics.

Per canviar el mapa: feu clic els botons verds amb una creu de color negre per apropar; al botó verd amb un guió per allunyar la imatge; o en les fletxes verdes per a mapes adjacents.


METAR-TAF: